Torna al catalogo

CZ-6A R/B

AttivoSSO
NORAD 59344·ROCKET BODY·🇨🇳 China

Lanciato Mar 26, 2024 da Taiyuan Satellite Launch Center

Loading…

Prossimi Passaggi (prossime 24 ore)

TLE

AggiornatoSource: Space-Track

Epoca: Sep 14, 2026, 12:49 UTC

1 59344U 24058B   26257.53440598 -.00000025  00000-0  80600-5 0  9991
2 59344  98.7779 284.9959 0077224 254.4463 104.8183 14.28649061128726

Traccia CZ-6A R/B in tempo reale con AllMySat

Download on the App Store